Location: Unspecified
(0.0000°N, 0.0000°E)
Time: 01:29:50
(UTC+00:00)

PCSat - Pass Details

Date: 08 December 2017
Orbit: 784 x 796 km, 67.0° (Epoch: 23 June)

Event Time Altitude Azimuth Distance (km) Brightness Sun altitude
Rises 19:53:43 0° 234° (SW) 3,280 14.0 -27.8°
Reaches altitude 10° 19:57:15 10° 257° (WSW) 2,345 12.9 -28.6°
Maximum altitude 20:00:06 14° 290° (WNW) 2,042 12.1 -29.2°
Drops below altitude 10° 20:02:56 10° 322° (NW) 2,336 12.1 -29.9°
Enters shadow 20:03:57 - 331° (NNW) 2,556 12.2 -30.1°
